Theta_e
302 302 302 303 303 303 303 304 304 306 308 308 308 308 308 309 309 310 310 310 310 310 310 311 311 311 309 308 310 310 310 310 309 308 307 307 307 307 307 306 306 307 307 307 307 307 308 311 311 311 311 311 312 312 312 313 311 311 318 318 321 323 315 312 313 312 314 315 313 311 311 312 313 313 313 313 314 314 313 313 313 313 312 312 311 310 310 310
302 303 303 303 303 303 303 304 305 307 308 308 309 309 309 309 309 310 310 310 310 310 311 311 312 310 309 309 310 310 310 311 310 308 307 307 307 307 307 306 306 307 306 306 307 307 308 310 311 311 311 311 312 312 312 313 311 314 317 317 323 322 312 311 311 311 313 313 311 311 311 311 312 313 312 313 313 312 314 314 313 313 312 312 311 311 310 310
303 303 303 303 303 303 303 304 306 308 308 308 308 308 309 309 309 310 309 310 310 310 310 310 310 309 308 309 309 310 310 310 309 308 307 307 307 307 307 307 307 307 307 307 307 307 308 309 311 311 311 311 312 312 313 313 313 313 313 316 321 316 311 310 311 311 312 312 311 311 311 311 311 312 312 312 312 312 313 313 312 313 312 312 311 310 310 310
303 303 303 303 303 303 303 305 307 308 308 308 308 309 309 309 309 309 309 310 310 310 309 308 307 307 308 309 310 311 311 312 310 307 308 308 308 308 308 308 308 308 308 308 308 309 308 309 311 311 311 312 312 312 312 311 313 313 314 316 314 310 311 310 310 311 311 312 312 311 311 311 311 312 312 311 312 313 311 310 311 313 313 313 312 311 310 310
303 303 303 304 303 304 305 306 308 308 309 309 309 309 309 309 309 309 310 310 310 309 307 306 307 308 310 310 312 311 313 318 312 307 309 308 308 308 308 308 308 308 308 308 309 309 309 310 311 311 311 312 313 313 312 311 311 314 314 312 310 309 311 310 309 310 310 312 311 311 312 311 311 311 311 311 313 313 310 310 311 311 311 312 312 311 311 310
303 304 304 304 305 306 307 308 308 309 309 310 310 310 310 310 310 311 310 310 310 309 307 307 308 309 310 311 312 311 313 317 311 307 309 309 309 309 309 309 309 309 309 309 309 310 311 310 310 311 311 312 314 314 313 313 312 316 314 309 309 311 310 310 310 309 310 311 310 311 312 311 311 311 311 311 311 311 310 311 311 311 311 310 311 311 311 311
305 305 306 307 308 308 309 309 309 310 310 311 311 311 311 310 311 311 310 309 309 309 309 308 309 310 311 312 313 312 310 311 309 308 310 309 310 310 309 310 310 309 309 309 309 310 310 310 311 310 313 316 315 314 314 314 313 317 316 309 309 310 309 310 309 308 310 310 310 310 310 311 311 312 311 310 311 311 311 311 311 313 312 311 312 312 312 312
307 308 308 309 309 309 309 309 310 311 311 311 311 311 311 311 311 310 309 309 308 309 309 309 310 310 311 310 312 313 310 309 309 309 309 309 310 310 309 310 310 309 309 309 309 310 310 311 312 311 315 317 315 315 314 315 316 317 315 310 309 310 309 310 309 308 309 309 310 310 310 310 311 311 310 310 310 310 310 311 311 311 312 312 311 312 313 313
309 309 309 309 309 309 309 310 311 311 311 310 311 311 311 311 310 311 310 308 308 309 309 309 311 311 311 311 313 315 310 309 310 309 309 310 310 310 310 310 310 309 309 310 309 310 311 310 312 312 314 314 315 316 312 317 321 315 312 310 309 310 309 309 309 308 308 309 309 309 310 309 309 310 309 310 310 310 310 310 310 310 310 311 310 310 311 312
309 309 309 309 309 309 310 311 311 311 311 311 311 310 310 311 311 311 311 309 308 309 309 310 311 312 312 312 315 314 310 309 309 309 310 310 310 310 310 310 310 310 310 311 309 310 310 311 312 312 313 313 314 315 311 316 318 312 311 311 309 310 310 309 309 310 309 309 309 310 310 309 308 309 309 310 310 310 310 310 310 310 310 310 311 310 310 310
309 309 309 309 309 310 311 311 311 311 311 310 310 310 310 310 311 311 311 310 309 310 310 310 312 313 312 310 312 311 309 310 309 310 310 310 310 310 310 309 309 310 310 310 310 310 310 311 311 311 315 314 313 312 310 313 313 311 311 312 313 310 309 310 309 309 309 309 309 309 310 308 308 309 309 310 311 310 310 311 311 310 310 310 310 310 310 310
309 308 309 309 310 311 311 311 311 311 310 310 310 310 310 310 311 311 311 311 310 311 311 311 313 314 313 311 310 310 310 310 310 310 310 310 310 310 310 310 310 309 310 310 310 309 309 310 310 312 315 313 314 314 311 312 312 312 311 315 321 315 311 311 309 309 309 309 309 309 311 311 310 310 310 310 311 310 309 310 311 311 311 311 311 310 310 310
309 309 310 310 311 311 311 311 311 310 310 310 310 310 311 311 310 311 311 311 311 311 311 312 313 314 313 311 310 310 310 310 310 310 310 311 310 311 311 310 310 310 310 309 310 310 309 310 309 311 314 313 314 313 311 311 311 314 313 314 319 320 322 315 308 310 309 309 310 309 313 315 313 310 310 311 311 310 309 310 311 311 311 311 311 311 310 310
309 310 310 311 311 311 311 311 310 310 310 310 311 311 311 311 310 311 311 311 311 311 312 314 315 314 312 311 311 311 311 311 311 311 311 311 311 311 311 311 311 311 311 310 310 309 309 311 310 311 311 311 310 310 312 312 311 316 317 317 316 316 327 319 307 309 310 309 309 310 314 314 312 310 310 311 312 311 310 310 311 311 311 311 311 311 311 311
309 310 311 311 311 311 311 311 310 310 310 311 311 311 311 311 311 311 311 312 312 312 313 314 315 315 312 311 311 311 311 311 311 311 311 311 311 311 311 311 311 311 311 311 311 310 311 311 310 310 309 310 312 314 320 316 314 317 316 325 323 315 324 321 309 308 311 311 308 309 315 314 311 310 310 311 311 311 310 311 312 311 311 311 311 311 311 311
310 311 311 311 311 311 311 311 311 310 310 311 311 311 311 311 311 312 312 311 312 313 314 314 315 314 313 312 311 311 310 310 311 311 310 310 310 310 311 311 311 312 311 312 312 311 311 311 310 311 311 314 315 319 326 324 326 326 317 320 323 316 319 319 312 309 309 311 310 310 314 314 312 310 310 311 311 311 310 310 311 311 312 311 311 311 311 311
310 311 311 311 311 311 311 311 311 311 311 311 311 311 311 311 311 311 311 311 311 312 314 314 313 314 313 311 310 310 310 310 310 310 310 310 310 310 311 311 311 311 312 312 312 312 312 312 311 313 314 314 317 323 326 325 330 330 322 319 319 317 315 315 317 312 309 312 312 313 312 311 311 310 310 310 310 310 310 310 310 311 311 311 311 311 311 311
310 310 311 311 311 311 311 311 311 311 311 311 311 311 311 310 311 311 312 312 311 314 315 312 313 315 314 311 310 310 310 310 310 310 310 310 311 312 311 312 313 312 313 312 311 312 312 312 314 322 323 317 319 323 318 316 321 322 320 320 319 318 316 315 316 313 312 314 314 314 314 311 311 310 309 309 310 310 309 310 310 310 311 311 311 311 312 311
310 310 311 311 311 311 311 311 311 311 311 311 312 312 312 311 311 311 311 312 312 315 315 312 312 315 313 310 310 310 311 311 311 310 310 311 312 312 312 313 313 312 313 314 315 312 311 318 322 327 328 319 317 317 313 314 317 317 317 316 317 317 317 314 314 314 313 314 316 316 315 313 311 310 309 309 309 309 309 310 309 310 310 311 311 311 311 311
310 311 310 311 311 311 311 311 311 311 312 312 312 315 316 315 314 311 310 311 311 312 313 311 311 311 310 310 310 311 311 311 311 310 310 312 312 312 313 313 313 315 315 316 318 312 315 328 326 321 321 317 314 314 314 315 315 316 316 317 317 316 315 313 314 316 311 312 320 319 314 312 310 309 309 308 309 309 308 308 309 310 311 311 310 311 311 311
311 310 311 311 311 311 311 311 311 312 312 312 312 314 315 315 316 313 310 310 311 310 311 310 310 310 309 310 310 311 311 310 311 310 309 311 312 313 313 314 317 319 317 314 314 315 322 328 320 315 314 312 312 313 314 315 316 317 316 316 317 315 315 313 314 316 311 311 317 315 311 310 309 309 309 308 310 311 309 308 309 311 310 309 309 309 309 309
311 310 311 311 311 311 311 311 311 311 311 312 312 312 312 313 314 312 312 311 310 310 310 309 310 309 310 309 310 311 310 309 310 309 309 310 312 314 313 315 320 320 319 318 319 325 330 324 315 312 309 311 315 315 315 315 316 318 316 316 316 316 316 316 317 315 311 310 311 311 310 309 309 309 310 310 310 311 310 309 310 310 308 307 307 307 307 306
311 311 311 311 311 310 310 311 311 311 311 311 311 311 311 311 310 310 312 312 311 311 310 310 310 309 310 309 309 311 310 309 309 308 309 309 310 315 313 314 322 323 321 322 321 324 326 319 313 309 309 314 317 318 318 318 319 319 316 315 317 316 314 316 316 312 310 310 310 311 310 311 310 310 312 311 308 309 309 309 309 308 307 307 307 307 306 306
311 311 311 311 311 310 311 311 311 312 311 310 311 311 310 311 311 310 312 314 314 312 311 311 310 309 310 310 309 311 311 309 309 308 308 309 310 313 312 312 321 325 321 320 320 321 319 312 309 310 314 315 316 319 320 318 318 318 316 315 316 315 312 311 312 309 309 312 311 310 312 316 314 310 312 311 307 307 307 308 308 307 307 307 307 307 306 307
311 311 311 311 311 311 311 310 311 311 310 311 311 310 311 310 311 310 313 318 316 312 313 312 311 310 309 311 311 310 312 311 310 309 309 309 310 312 313 313 317 321 321 320 321 321 319 309 308 315 318 316 317 318 316 314 316 316 316 314 312 312 311 310 310 310 311 313 312 309 314 322 318 313 314 311 308 308 306 307 307 306 308 308 307 307 306 306
310 311 311 311 311 311 311 310 311 310 311 312 311 311 311 311 312 310 315 325 321 313 314 312 312 312 310 311 311 311 313 312 310 310 310 310 310 312 316 314 312 315 316 315 315 315 316 310 310 316 316 317 322 318 313 312 313 314 313 311 311 311 310 310 310 311 312 314 311 308 314 320 317 316 316 311 310 309 308 308 307 306 308 308 307 307 306 306
310 311 311 312 311 311 311 311 311 311 311 311 311 312 310 311 312 309 317 326 320 312 312 313 312 311 311 311 311 311 312 310 310 311 310 311 309 311 316 315 313 313 311 314 317 312 314 316 315 317 318 321 322 316 313 311 310 314 312 309 312 312 310 309 308 310 312 313 312 311 313 315 316 321 318 311 311 311 310 311 308 306 307 308 307 306 306 307
309 310 311 311 311 311 312 313 312 311 311 311 311 311 310 312 310 312 321 320 312 310 311 312 311 309 311 312 310 310 311 309 309 312 311 309 308 310 314 313 313 314 311 314 316 310 312 317 315 316 317 318 317 313 312 309 309 315 314 309 311 310 308 308 308 311 311 312 317 316 313 313 316 320 316 312 313 311 310 312 310 307 307 307 307 306 307 306
308 309 309 310 311 311 312 313 312 310 310 310 311 311 311 311 309 318 327 315 308 313 312 311 312 309 310 313 311 308 311 312 308 311 311 308 307 309 312 311 309 313 312 310 314 313 311 311 309 313 315 314 316 314 311 309 310 313 312 310 310 309 309 309 309 312 312 315 321 319 313 310 313 315 312 313 315 310 311 314 311 307 306 307 307 306 307 306
308 308 308 309 310 310 311 311 310 309 310 309 311 312 311 312 319 329 325 311 311 314 311 311 310 308 310 316 315 309 310 312 308 311 311 307 307 307 309 308 307 313 316 313 316 314 310 308 307 310 312 310 312 312 308 307 308 309 312 313 313 313 312 311 310 312 313 317 323 321 313 308 310 314 312 312 312 311 312 313 311 308 306 307 307 307 306 305
309 308 308 309 309 309 310 310 309 310 309 309 311 310 310 316 326 329 315 308 314 314 312 312 310 310 313 314 313 308 310 311 307 311 313 310 307 305 307 308 308 315 317 314 315 312 313 316 311 308 308 306 309 312 310 309 306 307 313 314 312 315 316 315 316 316 311 312 321 321 312 307 311 316 314 311 313 316 313 310 309 309 307 307 307 306 305 305
309 308 308 308 308 308 309 309 310 309 308 310 310 310 319 325 322 317 313 312 314 311 309 310 310 312 313 314 310 308 312 312 309 311 314 314 310 305 306 307 307 312 310 310 311 311 317 318 311 309 307 305 308 311 312 313 310 308 312 313 313 316 314 312 316 315 310 310 315 314 309 309 312 314 314 313 314 316 312 308 307 308 306 306 306 305 305 306
308 308 308 308 308 308 308 308 309 309 309 310 310 313 326 330 315 309 314 314 310 308 307 309 312 313 313 315 311 308 311 312 309 309 310 314 314 309 307 305 306 307 307 309 309 309 315 315 311 311 309 306 308 308 308 312 311 309 311 313 316 316 310 309 313 311 309 310 309 307 307 310 313 313 314 313 311 309 308 307 306 306 305 305 305 305 305 305
308 307 308 307 308 308 308 309 309 310 311 310 315 323 325 319 310 309 314 313 308 308 309 308 313 317 314 311 309 308 311 310 308 309 311 313 314 313 309 306 305 306 308 310 307 306 311 311 311 310 306 307 311 309 306 308 309 310 310 310 313 314 308 309 312 309 309 310 308 307 308 311 313 313 312 309 307 307 307 307 306 304 305 305 305 305 305 305
307 307 307 307 308 308 309 310 309 310 312 310 316 325 321 312 310 312 313 312 309 309 309 309 313 319 317 313 310 308 306 308 310 310 312 312 311 312 309 306 305 305 307 309 307 306 308 310 312 308 304 307 310 308 305 307 310 310 311 313 314 313 310 310 312 309 309 310 310 310 311 311 310 310 310 307 305 306 305 305 304 304 305 305 305 305 305 305
308 308 308 309 310 310 310 311 310 311 313 313 315 317 313 308 307 309 308 307 307 306 309 315 314 315 316 314 313 309 305 307 309 310 311 310 309 310 308 307 305 304 305 306 307 307 307 312 314 307 305 307 306 306 306 306 308 309 311 313 311 309 309 310 311 310 308 309 311 311 309 310 308 310 316 313 308 307 305 304 303 303 305 305 305 305 305 305
309 310 310 310 310 310 311 311 311 312 309 313 317 313 308 306 305 306 304 304 304 303 310 318 312 308 310 311 311 310 308 309 309 309 310 310 308 307 308 307 304 302 302 302 307 308 305 310 314 308 308 309 303 304 307 304 304 309 311 309 307 308 312 310 308 311 311 308 309 309 307 308 307 310 317 314 310 308 306 305 303 302 304 304 305 305 305 304
310 310 310 310 310 310 312 311 312 313 308 312 316 312 309 308 305 303 302 302 303 306 311 314 309 306 308 309 308 308 309 311 311 310 310 311 308 305 306 306 303 302 301 301 305 308 305 308 314 310 307 307 303 305 310 308 304 305 306 307 306 307 310 310 307 310 309 306 308 310 308 307 308 313 315 310 308 307 305 305 304 303 304 304 304 305 304 304
311 310 310 310 310 310 311 311 311 311 310 313 316 313 309 308 304 301 302 302 303 308 310 308 307 308 308 307 307 309 310 309 309 311 310 308 307 304 303 303 303 302 300 301 306 308 306 307 311 311 307 306 307 307 311 313 309 306 306 309 309 307 309 310 308 308 309 308 310 311 308 307 310 316 314 306 305 305 304 305 305 304 303 304 304 304 304 304
312 310 309 309 311 309 309 311 310 312 313 312 313 311 308 308 305 302 302 302 303 306 307 306 308 310 310 308 307 309 309 308 308 310 309 306 305 305 301 300 304 304 299 300 305 306 307 307 309 311 308 307 308 308 309 309 308 309 309 309 309 309 310 308 306 308 310 310 311 310 308 307 307 309 307 304 305 305 304 305 303 302 303 304 304 304 304 304
312 311 309 309 311 310 309 311 309 309 313 313 311 310 307 306 305 304 303 304 304 304 305 306 309 310 309 310 310 308 307 310 310 309 308 305 304 306 302 298 300 302 300 304 306 304 306 306 306 309 308 307 307 307 307 306 305 306 307 308 309 311 309 306 306 309 309 308 309 308 306 305 304 304 304 305 305 304 304 303 302 302 302 303 304 304 304 303
311 312 310 308 311 310 310 312 305 305 312 311 308 308 306 305 305 304 304 304 304 304 304 305 308 309 308 308 310 309 308 310 310 309 307 305 304 305 302 298 298 298 300 304 305 301 302 303 304 308 308 305 305 304 300 301 303 304 305 307 309 310 309 306 307 309 307 305 306 306 305 305 304 305 305 305 304 302 303 302 301 302 302 303 304 304 304 303
309 310 309 309 311 308 310 313 306 306 309 306 303 304 305 305 305 305 305 304 304 305 306 307 306 307 306 305 307 309 308 307 307 308 307 306 305 303 300 298 298 298 300 305 304 300 300 303 305 309 309 305 305 304 299 299 303 305 306 306 306 308 310 309 307 306 305 305 305 304 306 306 304 305 304 302 302 301 302 302 301 301 302 303 304 303 302 301
307 308 308 310 312 310 314 316 311 310 309 306 304 305 305 303 303 306 307 305 304 305 307 308 305 304 305 305 307 309 307 305 306 306 305 306 305 300 298 297 298 299 300 303 303 299 301 306 307 309 309 305 303 304 302 302 304 304 305 306 306 307 308 307 305 303 305 307 305 304 305 305 303 304 303 301 302 301 301 302 302 301 302 303 302 301 300 298
308 308 307 308 310 310 311 311 310 313 314 313 310 307 308 306 302 305 306 303 303 304 306 307 304 304 305 306 308 309 307 305 305 306 304 305 304 300 297 297 297 299 299 298 298 299 303 308 307 306 307 304 302 304 303 303 303 303 304 305 305 305 305 304 304 304 306 306 305 305 306 303 302 303 302 301 302 301 301 302 302 302 301 300 299 298 297 296
310 311 309 308 307 306 306 305 306 311 314 317 314 308 309 309 304 304 305 304 303 304 305 306 304 305 307 307 309 310 309 306 304 306 306 306 306 302 298 298 298 298 298 297 296 299 303 306 306 308 309 306 304 305 304 304 303 303 304 304 303 304 303 303 303 304 305 304 303 304 304 302 302 302 302 302 302 301 302 301 301 300 299 297 296 296 296 296
311 311 310 310 308 307 309 306 305 308 309 312 311 306 309 310 305 306 307 305 304 304 305 305 304 306 308 306 308 310 310 307 305 305 304 305 306 302 298 298 298 297 298 297 296 299 304 306 306 306 308 308 306 304 304 304 303 302 303 304 303 303 303 302 303 304 304 304 304 304 303 303 303 302 302 301 300 300 300 300 299 298 296 296 295 295 295 295
311 309 307 309 308 309 312 308 305 305 306 308 308 307 311 312 308 308 306 304 305 304 305 308 307 307 308 304 306 309 309 309 308 305 303 303 304 304 303 300 298 298 298 297 297 299 302 306 306 304 306 307 305 303 303 302 301 302 302 303 303 303 303 303 303 303 303 303 304 303 303 303 302 300 299 298 297 297 298 298 297 296 295 295 294 293 293 294
309 308 305 306 307 306 307 307 304 304 304 307 309 308 312 315 311 306 304 306 309 305 304 307 306 308 310 307 306 308 307 307 306 305 304 303 302 305 308 304 299 297 297 297 298 297 299 308 308 302 304 304 302 303 303 302 303 303 303 302 302 302 303 303 303 302 302 302 303 302 303 302 300 297 296 296 296 295 295 296 296 295 295 294 293 293 293 293
308 307 305 306 305 304 305 305 305 308 307 307 309 307 309 314 312 307 304 305 308 306 303 304 305 306 308 308 307 307 305 304 304 303 303 303 302 304 306 303 300 299 298 299 300 297 299 307 306 302 303 303 302 304 304 303 304 302 301 302 302 302 303 303 303 302 302 302 302 301 301 300 297 296 296 296 295 294 294 295 295 295 294 293 293 292 292 292
307 307 306 307 306 304 306 304 304 313 314 309 308 307 308 312 310 307 305 302 303 304 303 302 304 305 306 307 308 307 303 301 302 301 300 300 302 302 301 299 299 300 301 301 301 299 300 304 305 304 304 302 302 304 303 302 302 303 303 303 302 302 302 302 302 301 300 299 299 299 299 298 296 295 295 295 294 293 293 293 295 295 294 293 292 292 291 291
307 307 306 309 308 304 304 303 305 311 309 305 305 306 306 307 305 304 307 303 301 302 302 300 301 306 309 308 306 303 300 299 298 298 298 297 298 298 298 298 297 298 301 301 301 301 300 301 303 304 304 303 302 302 302 301 302 304 304 302 301 301 302 301 300 298 297 297 297 297 296 296 295 294 294 294 293 293 293 293 294 295 294 292 292 291 291 291
Wind_Speed
4 5 6 6 4 2 2 3 4 4 4 5 4 3 1 0 2 4 7 10 13 15 14 11 6 2 3 8 11 11 10 8 8 8 8 9 9 6 6 5 4 4 5 6 7 6 4 3 4 5 4 7 8 8 5 2 2 1 2 1 3 2 2 2 2 2 1 2 5 12 18 11 5 11 12 8 10 11 10 13 15 17 23 23 18 17 16 11
5 6 6 5 3 3 4 4 4 4 4 5 5 3 2 2 4 6 8 11 12 14 12 8 5 5 8 12 11 9 8 6 5 8 9 9 8 7 6 6 5 5 5 5 6 6 6 5 4 5 5 9 7 5 3 1 1 0 2 0 4 4 2 2 2 3 6 4 9 10 17 13 8 12 12 6 8 12 11 14 16 18 21 21 20 19 18 15
7 6 5 4 4 4 4 4 4 4 5 5 5 3 3 4 5 7 8 9 11 11 9 8 9 9 11 11 7 6 5 4 5 9 10 10 8 7 7 6 6 6 5 5 5 5 6 5 4 6 9 10 6 4 2 1 2 1 1 0 5 4 1 5 5 6 7 5 10 8 14 13 9 12 12 7 9 10 11 15 16 21 26 23 20 19 19 18
6 5 4 4 5 5 5 4 4 4 5 5 5 4 5 5 5 6 7 7 9 8 7 10 12 12 10 7 5 3 2 2 6 10 9 9 8 6 6 6 6 6 6 5 4 4 3 3 3 6 9 8 4 0 1 3 3 1 2 4 4 3 1 4 5 5 5 2 8 9 11 10 10 12 12 9 7 7 14 23 24 27 31 28 24 22 22 23
5 5 5 6 6 6 5 4 4 5 6 6 5 5 5 5 5 5 4 6 7 5 8 12 12 9 7 5 5 5 2 1 6 9 7 8 7 6 6 6 6 5 5 4 3 3 2 4 4 7 6 4 4 3 2 4 2 1 1 4 2 4 0 2 5 3 4 3 5 11 8 8 10 10 13 13 8 9 16 23 25 29 30 28 26 25 27 29
6 7 7 7 7 6 5 5 5 6 6 6 5 5 5 4 3 2 2 4 4 4 7 8 6 6 6 6 7 7 4 1 6 7 7 9 8 7 6 6 6 6 5 4 2 1 4 7 7 8 4 1 3 2 2 6 2 1 2 1 2 3 1 3 4 2 2 3 4 7 5 8 9 9 14 17 20 23 22 18 17 20 23 26 26 26 29 32
9 9 9 8 7 6 5 5 5 6 7 7 6 6 6 6 4 1 3 4 3 3 4 5 5 6 6 6 6 6 6 4 5 6 7 10 9 8 6 6 5 5 4 3 3 2 5 8 7 7 1 1 2 2 3 7 2 2 2 2 1 1 0 3 4 2 3 1 2 1 4 6 8 8 11 20 31 32 29 25 20 15 14 19 22 23 25 29
10 10 9 7 6 5 5 5 6 9 9 9 8 8 7 7 5 3 4 4 5 6 6 7 6 4 5 6 5 3 6 8 7 4 6 9 10 11 7 5 3 3 3 5 4 4 5 7 6 5 1 1 1 1 4 5 3 3 1 2 1 2 1 3 4 4 5 3 3 4 6 8 10 9 12 27 36 34 32 31 28 23 21 23 25 24 24 25
10 9 7 6 5 4 5 6 9 10 10 10 10 10 8 7 5 3 5 6 7 8 7 5 5 6 6 7 6 4 6 10 7 4 6 8 11 12 8 2 1 1 3 4 4 3 4 4 5 4 0 1 1 1 4 3 1 0 2 3 2 3 3 5 5 5 5 5 4 5 8 11 13 9 14 32 35 29 30 31 30 29 29 31 32 31 29 28
8 7 6 5 4 5 7 9 10 10 10 11 11 11 9 6 4 4 7 7 7 5 4 4 6 7 6 5 4 3 6 8 5 4 6 9 11 11 8 4 2 2 2 3 4 3 3 2 2 3 1 1 2 2 2 1 1 1 2 3 3 5 6 6 7 7 6 7 6 6 7 12 14 5 10 28 26 18 20 24 28 29 31 32 32 33 32 33
7 6 5 4 5 7 9 10 9 9 10 11 11 11 10 8 7 7 8 6 4 2 3 3 4 8 8 7 7 5 6 7 4 5 7 9 12 13 10 7 6 4 3 4 4 3 3 2 3 1 1 0 1 2 1 2 2 2 2 4 7 8 8 8 8 8 6 4 8 10 9 13 11 5 16 29 24 17 16 17 22 26 31 32 31 31 31 32
5 4 4 6 8 9 10 9 8 9 9 10 10 9 9 9 9 8 7 4 3 2 3 2 3 6 5 8 11 8 8 8 6 7 8 8 10 12 12 11 9 7 6 6 6 4 2 4 5 2 1 1 1 2 1 2 1 2 1 3 7 5 6 11 10 9 7 2 5 6 8 9 6 10 25 27 24 23 20 19 22 23 27 28 28 29 28 29
4 5 6 8 10 10 9 8 7 8 9 10 9 8 8 8 9 10 8 6 5 4 4 4 5 6 5 6 10 10 9 9 9 8 7 6 7 8 9 10 11 10 9 8 7 6 2 3 4 1 1 1 1 1 1 1 1 3 1 1 4 6 6 10 9 8 7 4 4 1 4 8 6 14 23 20 22 24 21 24 26 25 27 26 26 26 27 27
5 7 8 10 10 9 8 7 7 8 10 10 8 8 8 8 8 8 7 6 6 4 3 4 6 6 6 6 8 10 10 10 9 8 7 7 6 6 6 6 9 10 10 10 7 7 5 3 3 2 3 3 2 3 1 1 1 2 2 1 2 3 5 6 4 8 4 4 5 4 2 10 8 12 19 18 20 20 20 26 27 28 28 28 28 27 27 27
7 8 9 10 9 8 7 6 7 8 9 10 8 9 9 7 5 4 5 7 8 6 3 3 4 4 5 5 6 9 11 10 9 10 9 9 8 6 7 6 6 8 9 10 8 7 7 5 3 3 4 4 2 1 3 3 1 1 2 4 3 1 5 8 3 9 5 3 5 5 2 10 10 11 15 14 16 18 18 24 25 28 29 29 30 29 29 29
7 8 9 9 8 6 4 4 6 7 8 8 7 8 8 6 5 5 5 7 7 8 5 3 3 3 4 4 6 10 12 11 10 11 11 10 9 9 9 7 6 7 7 8 7 6 5 5 3 4 4 3 2 1 3 4 4 3 2 3 5 4 5 7 6 6 5 1 2 3 3 7 10 12 18 19 20 23 22 26 26 27 28 28 29 29 29 29
7 7 8 8 6 5 2 3 5 6 7 6 6 6 6 6 5 4 5 4 3 6 7 4 1 3 5 6 6 11 13 10 11 15 15 12 10 10 9 6 5 5 6 6 7 6 4 3 1 1 3 4 3 3 5 5 4 4 3 2 4 4 5 5 6 5 1 1 3 4 5 10 14 19 29 30 25 25 25 27 30 28 28 28 28 29 29 29
6 6 6 6 5 3 1 1 3 4 4 4 6 8 10 11 10 6 3 2 2 2 5 6 2 4 5 10 8 10 11 10 13 18 17 12 9 8 7 6 5 6 8 4 4 4 3 2 1 1 3 5 5 6 5 3 3 3 3 3 4 4 5 6 6 4 2 2 4 5 6 14 17 18 30 32 21 20 25 27 29 28 28 28 29 30 31 31
6 6 5 4 3 2 1 1 2 3 2 3 6 9 10 13 15 14 10 7 6 4 3 7 7 3 2 9 11 9 8 9 13 19 16 10 8 7 6 7 5 7 8 3 1 2 2 2 3 3 4 4 3 5 3 5 5 5 5 3 5 6 6 8 7 4 1 2 5 7 8 13 18 17 24 32 24 17 23 24 23 23 23 25 27 30 32 30
6 5 4 3 2 2 1 1 0 2 3 5 5 4 4 5 8 11 15 18 17 11 7 8 9 5 2 8 12 10 7 6 10 18 16 10 9 7 8 8 4 3 4 0 2 3 3 4 3 1 4 4 4 2 4 3 3 4 3 3 6 6 6 8 7 5 3 3 5 7 7 12 18 17 20 30 26 16 16 17 17 16 13 11 13 14 13 13
6 5 5 4 4 4 4 4 5 7 7 5 5 5 5 5 4 4 9 15 16 14 12 10 9 8 6 8 12 10 9 6 7 16 17 12 10 7 9 8 2 3 4 2 2 3 4 5 1 4 5 3 4 3 1 2 2 3 3 4 6 5 7 7 4 4 5 5 6 7 9 14 17 16 18 23 18 10 11 12 12 16 20 23 28 26 23 26
7 7 7 7 8 8 9 10 9 8 7 7 9 12 13 11 9 6 5 8 10 12 12 11 12 11 9 9 10 9 11 10 8 16 19 15 11 7 9 9 4 3 5 3 3 4 5 3 4 4 3 4 4 3 2 3 3 3 3 3 6 4 6 7 4 5 6 5 8 10 10 13 16 13 13 14 8 7 13 13 13 23 28 27 31 31 29 29
9 9 10 9 10 10 10 10 9 9 10 12 13 14 14 13 11 9 4 3 5 8 8 10 13 15 12 10 10 7 9 10 9 18 24 20 14 8 8 8 4 4 5 6 5 4 4 2 5 5 6 6 5 5 4 4 4 3 3 3 6 5 4 5 5 7 7 4 6 9 9 9 11 9 7 10 11 14 23 28 27 27 26 25 28 28 28 27
9 10 11 9 9 9 11 12 12 12 12 11 11 11 11 11 10 9 5 2 2 5 7 8 11 17 14 11 13 8 5 9 11 18 25 24 17 8 5 5 5 5 5 5 4 4 1 3 4 5 5 4 4 6 6 5 5 4 4 3 5 5 3 4 6 9 8 4 2 6 8 5 6 10 7 9 16 18 22 27 25 24 24 24 26 27 26 25
9 9 10 9 9 10 12 12 11 11 10 7 6 6 7 8 9 9 5 2 1 4 7 7 8 15 15 13 17 9 1 9 14 18 22 24 18 7 3 5 5 5 7 6 5 4 1 3 4 5 5 5 5 5 5 4 5 6 4 3 4 6 6 6 7 9 6 4 3 6 6 5 6 9 6 6 10 12 13 15 14 17 22 22 23 25 24 23
8 8 8 8 9 10 10 8 7 7 5 2 2 5 7 8 9 9 5 4 3 5 6 8 6 12 15 15 19 8 2 7 13 18 21 22 18 7 4 6 4 3 5 4 4 2 2 3 3 4 4 6 6 4 3 4 5 6 4 3 4 6 7 6 6 5 3 4 4 4 3 3 7 7 5 4 7 8 9 8 7 11 16 18 19 21 21 20
9 8 8 8 9 9 8 5 3 3 1 3 6 8 9 9 8 7 3 4 5 4 5 7 5 11 14 15 19 7 2 9 11 17 22 21 18 8 5 6 4 4 4 1 4 2 2 6 6 6 5 6 6 4 4 3 5 5 4 1 6 9 8 5 2 1 2 3 6 3 4 2 5 7 6 3 6 7 8 7 6 6 10 14 16 18 19 18
10 10 10 9 9 9 7 3 3 2 4 6 8 9 9 8 6 4 3 4 4 4 4 6 5 12 13 10 17 12 2 8 7 11 20 22 19 8 4 6 2 4 4 4 4 4 2 5 5 5 6 5 3 4 5 2 2 7 6 2 8 8 6 3 2 3 2 2 5 5 1 0 5 7 6 4 6 6 6 6 7 5 8 12 13 15 16 15
11 11 11 9 9 9 6 3 1 2 5 7 7 6 4 4 5 2 5 3 3 3 4 7 6 13 15 7 13 16 8 8 7 8 15 22 23 10 2 6 6 2 4 6 2 3 2 2 1 2 4 2 4 6 5 2 2 9 7 6 7 3 1 3 3 2 2 4 2 6 1 1 5 6 5 4 4 3 6 6 7 5 8 10 11 13 14 15
11 11 11 9 8 7 6 3 3 5 7 8 6 4 2 3 1 4 6 1 1 4 6 7 5 11 17 8 9 16 9 7 10 10 13 20 30 23 5 5 11 5 4 7 3 2 2 1 1 2 2 3 6 7 4 4 5 8 7 6 5 4 3 1 1 2 4 3 5 7 2 2 3 5 3 2 2 4 5 4 7 5 4 6 7 11 15 20
10 10 10 8 6 5 4 3 4 6 8 7 5 4 2 3 4 6 4 1 1 6 7 5 5 8 11 5 5 12 7 7 12 11 10 13 23 26 12 6 11 7 5 8 6 5 6 3 2 1 1 3 3 4 4 0 1 5 5 4 5 5 4 4 5 4 4 4 7 6 2 1 2 5 5 5 6 6 5 3 5 6 4 2 6 12 18 24
9 9 8 7 5 4 3 3 4 7 8 4 3 4 1 3 6 3 1 4 2 4 4 3 5 6 7 4 4 7 5 6 10 8 5 5 8 12 11 6 6 6 6 7 6 7 5 2 4 3 2 3 3 4 6 5 5 6 4 5 5 4 5 5 5 4 2 6 7 3 2 1 4 6 7 7 7 8 9 6 5 6 4 3 10 17 21 25
9 8 6 5 4 2 2 2 6 7 5 3 2 3 4 6 4 1 3 4 1 2 3 3 5 5 5 6 6 7 4 4 8 7 4 4 5 5 7 7 6 4 2 3 4 6 4 5 7 3 2 3 4 4 5 4 5 6 3 4 3 2 4 5 4 4 4 7 10 3 3 2 5 5 7 8 9 12 11 5 4 3 3 8 14 19 22 25
11 9 6 5 4 1 0 2 5 4 4 5 2 3 8 7 1 2 3 3 2 3 3 3 6 6 5 4 3 5 4 3 5 7 5 5 6 4 5 8 9 5 0 1 3 4 4 6 5 2 3 4 3 1 1 2 3 4 2 4 3 2 2 2 2 3 5 7 11 6 3 3 5 5 8 8 10 15 11 5 4 4 8 9 13 18 20 24
13 11 8 7 6 4 3 2 3 4 5 5 7 7 7 3 1 2 2 4 3 4 5 5 5 6 6 4 3 4 4 2 4 6 5 5 4 3 4 5 7 5 2 3 2 1 3 5 7 2 2 1 1 2 3 2 2 4 1 4 2 2 4 2 3 5 4 5 7 4 1 4 4 8 10 5 5 10 8 6 4 5 8 10 12 16 18 21
13 12 11 9 8 7 6 5 5 5 3 6 10 7 3 1 1 1 1 3 2 3 6 7 6 6 5 5 4 6 3 2 4 5 3 3 3 3 3 2 4 5 3 2 1 2 3 6 8 5 3 3 2 2 2 1 2 2 2 2 3 3 6 1 4 3 2 2 4 3 4 5 4 7 8 6 6 8 7 8 5 3 6 10 11 14 15 19
12 12 12 11 10 9 8 9 8 5 8 14 10 3 2 1 1 2 2 4 2 3 3 4 4 4 4 4 5 9 7 4 4 4 3 2 2 3 3 2 2 4 3 1 1 1 1 5 8 3 4 5 3 1 3 2 1 2 1 4 3 2 4 3 1 3 4 2 5 4 5 6 4 5 7 7 9 11 9 8 6 4 5 9 10 12 14 18
14 15 15 14 12 8 7 10 7 9 19 18 7 3 3 0 1 2 4 3 2 1 5 4 1 2 2 2 4 7 6 5 5 4 3 2 2 3 3 3 3 4 5 3 1 2 1 4 8 3 3 6 1 2 4 4 1 1 2 3 2 2 2 1 1 2 2 3 6 6 7 5 3 4 6 7 8 12 12 8 6 7 6 9 11 12 14 18
12 13 15 15 12 10 9 6 5 13 19 12 3 3 2 1 0 2 4 3 1 2 5 1 1 2 2 2 1 5 4 3 3 3 3 2 3 3 4 2 4 7 10 4 1 3 0 0 6 5 3 5 3 3 3 5 4 2 3 3 2 2 3 2 1 2 2 3 4 6 8 5 5 6 5 7 10 11 10 8 7 8 9 11 12 12 16 20
8 9 11 11 11 12 8 7 14 19 14 4 3 3 1 1 1 4 6 4 1 2 2 1 1 3 2 2 1 2 2 1 2 2 2 1 3 1 3 2 3 9 11 3 2 2 2 1 4 6 5 5 3 1 2 3 3 3 3 3 3 2 1 1 1 2 4 2 3 4 6 7 7 5 5 10 13 9 7 7 7 11 15 14 11 14 18 21
9 8 7 8 8 7 7 11 16 15 6 2 4 2 1 2 1 4 6 5 3 4 2 2 2 1 1 2 2 1 2 3 1 1 0 2 4 2 2 2 1 6 7 4 2 2 1 1 2 5 6 4 5 6 5 5 4 3 2 2 3 2 1 2 4 2 1 3 4 3 6 10 10 5 5 9 8 6 9 10 9 19 24 16 14 19 19 20
11 6 5 9 8 4 9 12 11 6 4 4 3 3 2 1 1 4 6 4 3 3 3 2 2 1 1 0 1 1 1 2 1 2 0 1 2 1 3 3 3 3 2 2 2 1 1 1 1 5 5 7 12 7 3 4 3 3 3 3 2 2 3 2 4 5 3 2 3 3 4 10 9 4 5 6 6 10 16 15 14 23 26 18 19 23 20 23
16 9 5 6 5 6 12 10 7 6 5 2 2 4 3 2 2 4 5 5 3 2 3 2 1 2 0 1 1 1 0 0 1 1 1 1 1 3 4 3 3 2 0 1 2 2 1 1 1 5 6 7 10 5 3 3 2 0 4 3 2 2 4 6 5 2 2 5 4 2 4 10 7 2 3 8 13 17 20 21 21 23 23 19 23 26 24 28
22 20 15 9 2 5 8 5 2 3 2 2 3 4 4 4 5 4 3 4 3 1 2 0 0 1 1 2 1 1 1 1 1 1 1 2 2 3 3 2 2 2 1 1 1 3 2 0 2 4 6 8 8 7 5 2 1 2 6 3 3 2 3 1 2 2 1 6 6 4 5 10 7 5 9 15 16 16 21 28 27 21 20 22 27 28 28 30
16 17 22 21 13 11 9 8 9 6 3 3 4 3 3 4 5 5 3 3 3 2 2 1 2 2 2 1 1 2 2 1 1 2 2 2 3 4 3 3 2 2 1 2 2 1 1 2 2 2 2 5 7 6 6 6 5 6 7 6 3 2 1 4 2 1 3 5 4 4 7 11 11 13 15 17 15 15 24 31 28 22 23 28 29 29 29 31
6 5 11 18 21 22 18 13 12 8 4 5 4 3 4 3 2 3 3 3 4 2 1 2 2 2 3 5 4 3 3 1 1 2 2 3 4 3 3 3 1 2 1 1 2 1 1 1 2 5 5 5 7 8 7 4 6 9 14 17 13 4 3 3 1 3 5 2 3 9 11 13 15 16 16 16 17 19 22 25 25 27 30 31 30 31 33 35
6 3 2 6 11 16 15 12 10 7 4 4 3 1 3 2 2 3 2 1 4 3 1 2 4 3 3 4 4 3 5 4 3 1 1 3 4 4 4 2 0 1 0 0 1 1 3 2 5 6 8 10 10 11 10 7 8 12 14 19 19 11 3 4 6 10 6 1 7 14 14 14 15 16 17 19 21 21 21 24 27 29 32 33 35 39 42 40
6 4 4 5 3 4 6 8 10 11 8 5 4 1 3 4 2 1 2 2 3 5 3 2 5 5 3 2 2 2 5 6 3 2 2 3 4 5 5 2 1 1 0 0 1 2 3 3 5 5 7 12 11 11 12 9 8 10 13 17 18 15 11 8 12 15 8 5 11 16 16 16 13 16 20 21 23 23 26 29 28 29 33 36 40 45 45 41
13 9 7 8 6 5 5 4 9 14 11 6 4 2 2 3 1 2 2 2 3 5 5 3 5 7 5 1 3 1 3 3 4 5 2 2 4 3 3 2 0 0 1 1 2 1 2 3 5 3 5 11 12 12 11 8 6 9 15 17 14 13 14 13 13 13 9 10 15 16 17 13 10 15 16 20 27 30 33 34 28 27 32 34 39 44 43 42
12 10 12 16 13 9 7 5 6 9 7 5 4 2 1 2 1 2 2 3 2 4 5 3 6 8 6 2 2 1 3 4 4 6 2 1 3 2 2 2 1 2 3 1 1 1 1 2 3 2 4 11 11 7 6 5 6 12 18 17 12 12 13 11 9 7 5 7 10 10 10 7 12 18 20 24 33 35 33 32 26 24 30 36 43 46 45 45
17 17 18 18 10 6 6 5 4 5 4 5 2 1 1 1 2 1 2 2 1 1 2 2 6 6 5 2 0 3 6 4 7 11 9 7 6 5 3 1 2 4 5 2 1 2 1 3 4 5 5 11 8 4 7 9 9 12 13 11 12 12 11 9 6 6 6 6 8 11 9 7 12 20 22 25 33 34 29 30 28 25 30 37 42 46 45 45
19 17 13 13 7 6 6 4 5 5 2 2 1 1 0 0 2 2 2 1 1 2 3 4 5 5 4 4 4 7 11 12 14 17 17 16 16 15 14 11 6 3 2 1 2 1 1 0 3 4 4 10 11 10 12 11 8 7 6 10 14 11 10 11 7 9 10 7 7 7 7 8 12 17 18 19 26 28 26 30 31 28 30 36 40 43 44 45
Wind_Direction
150 144 141 138 130 114 118 112 99 86 79 69 66 74 84 259 312 324 332 336 338 341 344 344 342 23 111 127 111 95 84 66 41 19 9 16 8 357 358 345 330 311 295 290 286 278 242 224 317 339 303 295 278 254 253 288 353 42 115 144 259 255 252 291 294 270 280 174 158 171 171 166 188 193 201 215 227 233 223 219 219 218 223 232 246 257 268 260
139 136 134 133 133 132 128 113 100 87 72 64 55 47 8 321 317 321 328 334 342 350 358 14 49 97 119 119 109 96 76 50 17 9 12 8 360 0 358 347 340 327 314 304 290 282 271 266 326 0 334 319 291 240 213 232 359 159 142 107 248 221 206 356 356 346 353 195 176 178 181 181 195 193 195 213 237 234 239 239 232 235 232 228 240 251 255 248
134 134 135 136 138 133 126 112 101 84 63 54 39 17 347 326 319 321 328 339 354 5 25 57 79 103 112 107 100 86 69 59 19 10 9 358 346 344 344 338 336 332 329 320 308 302 292 300 354 349 326 319 289 232 202 7 350 244 106 290 249 242 259 16 14 3 6 175 173 177 188 195 207 198 195 213 239 233 232 236 231 237 235 224 228 240 243 237
137 137 138 132 130 126 119 108 91 68 48 38 21 360 342 327 322 323 332 356 10 22 58 84 94 104 102 90 79 54 46 78 22 12 3 346 331 322 326 327 331 330 333 334 331 343 333 350 8 329 313 303 305 298 25 10 340 318 111 194 247 309 337 5 355 339 2 132 183 182 181 205 219 206 200 202 231 242 233 234 232 234 237 231 228 233 238 238
137 132 125 120 119 115 108 95 73 52 40 31 18 3 348 334 326 328 348 12 22 52 90 100 100 94 78 66 58 17 355 40 3 6 357 346 334 314 312 315 324 324 327 341 351 29 18 358 336 309 295 284 350 28 2 2 342 327 176 192 302 356 57 346 342 315 332 13 170 167 165 210 219 219 212 198 207 237 237 240 243 244 247 245 239 237 238 240
121 113 110 109 107 101 93 78 59 50 49 48 41 28 12 354 335 337 40 37 44 90 105 103 90 74 71 62 50 31 49 85 344 355 360 2 355 331 312 304 319 319 320 322 308 14 352 330 302 285 259 242 16 85 359 351 346 276 275 222 20 10 100 316 327 296 284 24 105 159 197 218 215 244 239 224 232 245 248 247 252 255 254 253 249 244 240 241
109 104 103 100 95 89 82 69 63 73 77 73 64 50 36 20 12 85 105 66 76 123 122 112 94 82 67 42 40 40 58 50 351 352 6 12 8 352 322 295 318 328 337 343 307 335 346 328 302 291 275 47 27 92 358 346 18 123 264 288 19 345 33 288 298 250 226 36 42 228 254 229 213 244 256 247 248 250 254 251 249 249 240 238 241 241 240 242
105 101 98 93 91 88 79 77 90 95 87 76 62 49 40 30 32 121 132 98 102 110 111 112 88 43 2 355 354 360 14 7 355 3 14 17 16 4 339 296 311 329 10 22 354 338 331 335 335 328 3 79 79 79 12 360 24 93 238 287 267 248 245 272 284 254 236 240 285 284 266 249 241 262 272 260 259 258 257 255 250 245 238 238 242 243 238 239
104 100 95 93 93 88 89 103 105 95 79 66 54 43 34 29 38 127 146 116 102 103 100 89 41 359 341 337 338 351 355 349 353 24 26 25 22 10 359 349 310 318 31 14 337 324 329 352 4 358 21 141 120 49 20 20 351 166 225 278 266 225 241 261 257 251 251 248 269 277 265 261 260 278 274 264 267 269 262 257 253 248 245 245 247 247 241 238
106 99 95 95 91 97 109 113 103 85 73 60 48 40 28 22 43 104 142 128 109 104 74 53 35 18 6 347 1 22 352 352 12 50 41 34 32 21 16 28 353 342 21 336 294 292 330 5 358 6 13 119 101 23 4 123 197 246 249 280 262 237 248 250 245 251 251 253 248 241 260 265 261 267 268 271 278 277 263 254 251 247 247 249 249 249 248 245
105 97 95 98 104 116 118 113 98 82 70 55 45 39 35 42 64 96 131 137 128 106 32 55 54 37 28 31 63 58 8 22 53 68 57 42 41 33 28 35 17 8 358 341 331 293 278 281 272 280 323 239 94 356 336 164 179 261 276 305 280 259 261 247 239 245 232 253 246 235 261 263 257 232 245 267 282 273 257 253 250 246 246 249 251 252 253 251
101 97 103 113 120 125 121 111 96 78 61 47 39 34 39 48 61 90 115 126 118 64 43 61 34 28 35 48 61 54 32 46 58 62 56 39 39 31 28 38 32 27 19 8 9 350 274 267 283 290 317 197 217 358 12 161 171 282 275 315 298 316 290 243 228 227 209 215 242 240 282 268 222 226 248 267 284 271 257 254 250 246 247 248 249 252 253 254
106 110 119 128 131 129 122 107 87 66 47 37 34 36 46 51 66 85 85 81 86 82 76 64 38 29 44 58 55 44 29 36 44 48 47 29 31 22 23 42 44 40 32 27 27 22 5 276 311 351 99 136 168 111 218 175 63 295 255 204 306 356 322 244 215 205 201 202 212 143 310 281 224 232 259 284 292 278 260 255 253 247 248 248 248 251 252 255
120 124 132 137 136 130 118 98 73 55 41 37 41 51 59 65 78 78 64 66 73 80 88 68 50 34 51 67 48 28 16 17 21 18 15 7 4 11 15 36 55 51 36 30 34 43 54 49 34 71 89 81 137 157 305 342 84 291 331 17 342 348 301 274 198 171 180 219 196 123 248 273 274 261 278 296 299 288 258 254 257 252 249 246 247 250 252 255
126 132 140 143 140 131 111 87 61 49 42 43 56 69 71 76 78 61 66 82 70 58 73 82 63 47 60 61 30 16 10 8 7 358 354 350 342 352 1 7 42 47 32 23 26 46 54 41 48 97 93 73 108 120 353 343 325 15 23 327 326 326 287 300 256 179 187 243 180 140 240 274 283 278 288 296 304 301 267 258 257 253 252 249 249 251 253 257
129 136 147 150 147 135 109 71 53 45 40 48 66 75 78 83 78 75 95 98 69 46 51 84 77 79 69 33 18 14 11 12 13 7 356 351 347 348 354 358 21 25 10 2 359 15 24 14 45 93 88 43 19 48 24 11 339 359 55 298 296 317 314 315 298 215 199 236 187 206 253 281 282 281 291 293 298 298 283 272 265 258 256 251 251 252 255 259
136 143 153 158 154 145 108 59 45 35 45 67 71 67 66 65 57 74 102 108 66 32 41 50 141 121 63 27 16 5 8 14 15 13 3 356 354 353 358 358 15 7 333 316 312 316 335 345 33 76 58 29 5 67 46 13 325 328 18 340 284 290 313 315 310 301 306 27 263 256 250 264 273 284 291 294 296 288 276 272 270 265 260 256 256 256 258 259
144 152 159 166 174 173 161 27 25 31 60 78 71 71 69 65 62 66 99 197 262 357 41 35 49 140 40 15 2 346 360 15 13 12 4 358 356 352 358 359 8 350 329 317 283 279 305 323 111 44 26 19 14 62 48 311 247 278 307 315 305 307 305 289 288 306 24 4 282 282 272 270 277 288 294 298 303 286 273 273 273 269 265 263 262 262 263 261
145 155 163 173 184 191 211 331 5 21 48 74 80 81 75 73 73 70 72 80 72 79 68 31 40 114 313 351 358 347 355 15 16 9 359 357 2 351 349 349 346 339 341 6 327 322 1 13 55 27 344 331 352 92 147 221 205 239 253 254 283 296 294 277 274 275 35 347 278 264 268 280 290 298 298 303 312 297 283 284 282 277 272 268 268 269 269 268
137 142 152 160 162 179 189 215 28 77 96 99 80 59 52 57 68 63 62 68 70 74 74 50 47 52 319 346 4 2 358 4 6 4 1 357 356 0 5 353 329 339 353 355 306 341 47 53 55 264 252 255 269 172 180 230 227 259 284 298 284 286 289 279 280 302 13 354 265 259 279 286 292 297 295 303 314 310 295 297 302 305 310 321 333 321 314 328
128 128 130 129 128 136 138 135 124 115 114 104 61 52 57 44 58 57 54 64 67 70 66 55 47 31 12 8 10 13 13 5 349 1 9 2 353 3 9 7 37 10 341 281 278 322 56 59 351 242 234 251 275 261 278 321 321 307 310 312 308 290 275 283 296 328 18 7 288 293 312 297 294 298 296 305 314 314 315 312 327 12 35 41 40 38 38 37
124 127 124 125 129 125 126 128 125 122 116 99 84 79 74 65 64 50 52 71 63 66 64 51 47 35 27 23 13 12 17 16 3 7 13 10 12 15 6 22 56 355 338 4 16 1 35 42 280 278 322 343 313 292 309 324 334 332 333 332 319 297 282 302 329 353 13 358 303 314 322 299 296 297 294 307 313 327 360 18 41 52 54 51 48 45 43 41
127 134 132 135 134 124 123 126 125 125 115 105 97 86 73 62 48 28 35 99 60 57 53 38 37 29 27 24 8 5 22 22 4 6 10 10 16 21 14 24 15 347 4 28 54 40 20 310 284 319 358 5 337 332 0 354 352 337 331 328 304 322 348 314 321 343 333 287 280 311 316 294 305 321 313 340 13 27 42 60 67 63 60 54 51 46 42 43
131 139 141 139 130 121 118 117 119 118 111 105 98 82 62 43 30 15 12 141 81 43 32 22 24 20 18 13 6 2 26 26 6 3 8 9 10 11 17 21 10 10 1 12 75 96 17 281 315 345 355 19 346 344 23 21 349 315 292 286 287 314 321 267 301 329 319 293 310 342 332 304 329 350 336 356 25 34 47 64 67 61 58 50 45 41 39 43
134 142 147 138 126 124 120 114 114 114 109 107 89 53 26 11 6 0 6 99 13 348 10 10 11 14 10 6 3 355 50 29 13 6 7 10 11 8 8 15 24 5 335 0 63 81 13 288 340 1 350 19 11 343 12 26 351 324 290 237 257 290 289 291 326 339 346 342 10 38 10 303 317 342 324 338 23 27 30 50 61 59 55 44 39 36 34 38
146 145 149 144 136 135 132 120 116 121 116 106 357 344 341 339 341 344 4 84 6 324 351 359 356 5 7 5 357 352 117 16 11 14 11 9 10 16 15 360 27 15 327 360 59 86 10 325 354 20 353 13 24 353 346 43 26 331 279 220 261 291 307 326 353 4 2 300 303 63 105 260 308 316 294 336 26 23 14 24 36 53 54 43 40 38 34 36
164 156 154 155 153 154 155 146 152 181 253 304 310 311 310 321 332 330 355 65 4 323 346 354 353 358 1 7 7 27 133 336 359 20 15 11 7 18 40 5 14 6 320 21 29 347 5 0 5 21 19 26 27 351 315 50 38 296 249 226 305 306 309 321 28 116 231 272 311 7 137 197 297 282 279 350 41 20 4 355 351 33 48 38 40 40 37 37
176 168 164 165 168 173 179 177 192 249 321 315 310 308 301 310 314 319 73 85 343 331 349 344 353 2 2 16 25 46 67 343 5 15 15 22 14 10 63 34 18 315 336 65 25 328 16 20 1 19 31 25 3 289 273 57 36 266 248 274 294 293 280 254 179 222 247 31 336 320 83 143 273 275 309 9 54 8 334 313 309 346 24 28 38 38 38 39
183 178 175 177 179 187 196 197 228 320 337 328 321 316 306 314 297 337 80 104 315 336 343 347 349 354 359 16 26 28 34 22 25 10 21 33 27 28 124 23 21 331 3 58 61 294 10 31 319 60 54 349 277 264 258 142 254 275 287 296 292 310 223 196 168 215 7 51 294 279 324 42 286 289 320 1 44 326 282 280 291 326 19 24 33 37 38 30
182 179 181 184 187 198 212 237 296 310 321 326 322 310 311 340 356 66 48 30 309 340 332 354 344 341 358 14 9 8 19 25 12 13 25 33 34 41 68 6 19 39 17 22 54 247 298 324 341 75 90 260 266 282 278 187 245 304 338 329 330 16 46 46 75 97 50 8 259 250 215 87 310 293 286 300 299 252 240 272 291 306 13 22 32 40 32 16
176 176 179 185 192 204 223 260 306 319 325 323 308 308 317 357 54 89 57 300 311 344 340 354 343 347 8 30 358 351 356 1 4 18 20 20 31 34 39 14 7 27 20 3 8 346 349 11 352 333 301 298 291 309 329 41 338 360 9 355 355 354 10 16 356 38 46 305 260 245 255 104 241 271 278 273 272 244 214 240 281 284 300 356 39 37 24 12
157 163 168 174 186 207 235 270 317 325 330 333 306 314 333 38 34 78 327 320 327 351 347 315 326 345 354 19 13 343 338 349 360 27 34 25 38 32 39 34 353 8 14 360 353 348 354 319 300 295 300 349 10 340 340 358 21 22 14 24 27 356 0 5 339 1 1 270 262 273 358 307 236 251 269 269 263 239 222 224 247 263 275 24 37 26 15 9
136 139 148 159 170 199 236 286 323 326 333 356 317 326 71 79 39 333 305 341 346 328 334 287 305 323 339 18 7 337 351 357 355 13 28 50 61 37 36 32 21 28 349 342 359 353 340 304 321 352 333 360 47 27 349 330 345 356 10 57 62 35 11 337 313 335 316 281 287 311 104 272 287 265 249 242 230 225 220 225 266 292 36 46 26 13 7 3
123 118 128 135 131 125 28 311 326 351 2 359 353 38 63 74 24 340 341 315 297 336 350 315 317 335 16 45 349 339 15 346 352 19 13 29 41 12 7 9 15 34 206 22 26 16 7 315 318 20 335 346 39 75 200 249 305 294 205 121 108 111 110 263 266 298 302 293 301 326 118 239 298 280 260 251 231 226 224 247 294 9 48 33 8 4 4 1
110 108 112 104 98 96 71 41 39 34 4 25 61 63 67 79 278 3 343 289 310 337 323 327 358 21 15 358 330 14 42 322 348 39 32 32 47 5 360 350 353 15 49 33 355 22 31 280 265 293 288 270 353 244 178 112 322 274 170 87 48 193 161 198 228 229 269 293 295 313 229 249 271 271 280 302 262 249 256 288 324 45 32 8 1 4 5 1
102 103 101 97 90 81 64 61 54 8 345 83 74 56 81 120 264 128 327 311 336 320 317 344 27 38 354 331 341 359 18 323 348 35 38 42 67 15 359 311 336 18 61 71 314 1 28 280 280 333 322 218 172 245 218 134 316 323 40 15 274 190 145 147 277 267 355 331 282 291 285 297 325 293 298 350 325 303 320 327 332 26 9 357 1 1 0 1
106 103 93 86 75 73 80 75 61 52 79 85 77 71 142 149 229 199 304 322 287 287 8 28 23 27 355 338 336 337 347 357 360 26 28 21 38 8 356 311 334 38 62 76 290 270 69 290 289 317 303 264 188 244 275 235 177 46 336 268 287 69 106 108 305 329 16 344 280 296 289 296 328 301 310 338 321 312 321 318 304 306 339 348 348 351 356 359
103 94 80 68 65 72 80 65 59 91 86 76 71 95 106 91 230 246 308 327 270 327 58 66 6 53 36 1 328 323 346 8 355 10 28 17 18 36 35 327 329 27 6 353 320 268 137 306 293 260 266 282 250 58 326 296 254 157 250 273 37 31 324 1 24 306 339 301 285 299 299 285 234 242 288 307 300 301 306 311 299 287 308 331 332 341 350 356
94 83 65 54 58 53 36 36 91 96 81 71 78 90 87 167 301 333 343 344 257 77 65 44 312 35 49 66 326 311 344 13 339 7 54 28 352 57 78 345 307 346 348 354 181 277 74 50 292 286 297 314 355 41 346 308 315 350 341 337 20 175 202 210 203 176 189 256 271 297 311 293 227 219 243 271 285 291 295 304 295 283 298 315 322 335 347 355
88 80 55 44 63 61 49 86 90 78 70 81 126 103 95 159 319 352 17 11 358 83 69 308 20 29 4 22 345 307 347 337 311 9 58 1 344 24 69 53 307 324 336 5 146 302 359 111 271 289 323 359 358 290 225 261 294 339 350 334 313 290 244 273 270 150 150 199 241 285 298 278 255 235 236 275 289 284 280 295 307 317 315 309 321 338 345 354
92 85 47 44 69 77 88 86 66 58 63 83 83 79 65 92 13 1 23 29 50 70 100 140 92 82 351 1 340 300 329 317 323 53 42 13 28 8 338 24 304 314 337 14 49 357 4 118 247 297 328 339 284 254 195 187 198 183 218 242 225 232 9 334 293 289 125 169 206 240 278 274 271 268 260 273 278 286 311 319 325 327 320 315 334 341 343 355
87 81 33 44 57 83 95 72 36 34 81 72 68 85 85 103 52 17 24 36 51 48 61 99 96 87 127 333 300 286 329 318 333 35 66 29 51 217 270 317 301 286 326 339 324 2 50 107 182 278 276 266 277 281 145 160 191 175 211 220 182 147 127 171 249 281 305 264 221 197 255 269 270 264 254 268 298 318 324 324 321 321 318 323 341 342 346 355
72 66 34 44 62 94 94 71 17 33 71 102 117 81 70 92 56 21 21 32 28 19 36 51 77 56 173 218 346 314 301 269 281 2 13 273 266 223 241 315 306 258 210 299 322 7 18 90 44 291 283 279 289 313 96 135 131 269 263 235 214 213 157 176 206 219 277 277 260 183 250 270 279 289 273 309 327 324 321 322 323 321 319 331 347 350 356 359
74 63 49 44 92 112 91 94 99 75 90 137 86 57 58 66 50 33 23 21 11 44 66 357 333 37 267 206 128 263 297 40 333 5 5 274 272 242 245 331 316 229 140 240 324 11 331 238 54 346 330 330 327 347 358 331 18 285 269 244 203 194 111 152 241 81 290 254 224 192 248 266 285 326 321 320 324 323 323 327 328 326 330 348 1 5 9 11
78 64 52 55 81 97 90 116 130 125 155 116 69 41 55 52 42 47 50 35 31 82 113 304 279 286 302 3 69 314 355 51 290 343 5 307 279 243 247 321 291 218 283 249 212 38 281 209 102 83 340 317 312 316 308 303 324 309 288 291 266 184 215 290 293 111 246 247 200 199 248 269 292 313 315 314 319 324 326 328 333 344 358 8 12 14 15 14
79 68 49 55 72 82 82 98 110 114 140 118 69 29 52 54 27 41 45 45 34 43 122 10 322 286 358 33 31 331 330 345 298 351 357 298 282 255 264 321 279 217 300 270 207 147 86 226 200 172 188 235 255 259 264 281 300 293 293 295 291 263 216 237 190 210 233 265 268 248 259 280 292 301 307 315 328 332 330 337 351 5 11 11 11 12 11 9
72 56 33 53 64 69 67 67 80 96 136 128 102 34 45 27 341 16 19 21 21 18 106 53 34 42 16 22 34 324 311 337 348 332 293 269 267 281 285 280 252 209 230 189 227 145 75 318 254 198 214 244 248 260 275 284 278 275 282 286 290 297 272 197 226 244 238 348 281 267 276 287 291 311 329 340 349 348 348 359 9 12 11 9 9 7 3 2
87 87 83 93 85 56 56 53 68 79 83 93 99 76 45 36 25 19 320 321 16 26 36 18 16 23 352 338 71 321 318 346 342 287 297 299 305 329 322 265 146 112 173 333 258 147 109 280 249 192 235 259 260 267 275 275 270 266 266 273 285 300 293 260 252 255 246 238 260 271 284 288 309 346 353 357 3 360 356 1 10 12 9 8 4 358 355 351
107 107 82 86 100 111 110 92 80 77 65 57 69 59 67 70 57 254 294 350 359 8 30 25 333 338 324 288 109 65 313 355 324 298 299 317 315 329 325 309 120 30 302 273 260 167 121 266 259 215 255 271 269 267 267 263 269 280 279 280 288 290 281 270 263 262 251 240 254 274 286 295 349 6 354 353 357 355 354 358 4 4 1 359 355 350 347 343
114 116 108 102 95 86 88 78 75 76 49 32 64 47 43 118 187 263 359 43 358 340 23 30 307 309 303 270 126 188 246 198 232 259 240 329 320 272 252 294 281 313 335 335 296 32 106 276 304 3 311 292 280 268 267 260 267 283 287 291 302 304 299 294 287 292 291 270 281 303 309 326 5 354 341 348 353 353 354 355 353 348 348 350 347 343 339 335
113 119 118 110 87 37 54 54 56 82 38 13 71 200 303 140 196 205 37 44 78 338 350 328 309 315 325 334 269 270 281 248 241 259 261 259 258 243 247 310 39 351 343 338 322 16 53 289 333 27 344 299 294 319 313 300 294 289 289 306 319 317 318 314 317 4 16 351 358 9 357 344 351 344 340 349 352 350 349 347 339 332 340 344 339 333 330 328
114 118 117 106 82 19 32 34 31 70 61 335 69 169 299 194 204 119 61 333 22 23 344 339 338 343 348 338 315 303 308 303 284 281 277 262 252 252 258 269 283 289 288 316 316 291 119 343 326 9 332 294 305 329 320 319 331 311 315 346 336 328 340 339 355 41 36 25 25 14 347 332 339 342 343 349 350 344 338 335 327 321 329 332 327 325 324 321